Time,TemperatureF,DewpointF,PressureIn,WindDirection,WindDirectionDegrees,WindSpeedMPH,WindSpeedGustMPH,Humidity,HourlyPrecipIn,Conditions,Clouds,dailyrainin,SolarRadiationWatts/m^2,SoftwareType,DateUTC
2013-02-27 00:05:00,35.3,-99.9,20.00,SE,130,8.0,17.0,255,0.00,,,0.00,0,Wunderground v.1.15,2013-02-27 08:05:00,
2013-02-27 00:15:00,35.1,-99.9,20.00,SE,128,6.0,17.0,255,0.00,,,0.00,0,Wunderground v.1.15,2013-02-27 08:15:00,
2013-02-27 00:25:00,34.9,-99.9,20.00,SE,128,10.0,17.0,255,0.00,,,0.00,0,Wunderground v.1.15,2013-02-27 08:25:00,
2013-02-27 00:35:00,34.4,-99.9,20.00,SE,130,11.0,17.0,255,0.00,,,0.00,0,Wunderground v.1.15,2013-02-27 08:35:00,
2013-02-27 00:45:00,34.4,-99.9,20.00,SE,134,7.0,17.0,255,0.00,,,0.00,0,Wunderground v.1.15,2013-02-27 08:45:00,
2013-02-27 00:50:00,34.4,-99.9,20.00,ESE,116,3.0,17.0,255,0.00,,,0.00,0,Wunderground v.1.15,2013-02-27 08:50:00,
2013-02-27 01:00:00,34.4,-99.9,20.00,SE,125,4.0,17.0,255,0.00,,,0.00,0,Wunderground v.1.15,2013-02-27 09:00:00,
2013-02-27 01:10:00,34.4,-99.9,20.00,SE,128,4.0,17.0,255,0.00,,,0.00,0,Wunderground v.1.15,2013-02-27 09:10:00,
2013-02-27 01:15:00,34.4,-99.9,20.00,SE,128,3.0,17.0,255,0.00,,,0.00,0,Wunderground v.1.15,2013-02-27 09:15:00,
2013-02-27 01:25:00,34.2,-99.9,20.00,ESE,116,6.0,17.0,255,0.00,,,0.00,0,Wunderground v.1.15,2013-02-27 09:25:00,
2013-02-27 01:35:00,34.1,-99.9,20.00,SE,132,4.0,17.0,255,0.00,,,0.00,0,Wunderground v.1.15,2013-02-27 09:35:00,
2013-02-27 01:45:00,34.2,-99.9,20.00,SE,126,5.0,17.0,255,0.00,,,0.00,0,Wunderground v.1.15,2013-02-27 09:45:00,
2013-02-27 01:50:00,34.4,-99.9,20.00,SE,134,3.0,17.0,255,0.00,,,0.00,0,Wunderground v.1.15,2013-02-27 09:50:00,
2013-02-27 02:00:00,34.6,-99.9,20.00,ESE,117,4.0,17.0,255,0.00,,,0.00,0,Wunderground v.1.15,2013-02-27 10:00:00,
2013-02-27 02:10:00,34.7,-99.9,20.00,SSE,148,2.0,17.0,255,0.00,,,0.00,0,Wunderground v.1.15,2013-02-27 10:10:00,
2013-02-27 02:20:00,34.9,-99.9,20.00,SE,130,2.0,17.0,255,0.00,,,0.00,0,Wunderground v.1.15,2013-02-27 10:20:00,
2013-02-27 02:30:00,34.6,-99.9,20.00,SE,132,7.0,17.0,255,0.00,,,0.00,0,Wunderground v.1.15,2013-02-27 10:30:00,
2013-02-27 02:40:00,34.6,-99.9,20.00,SE,132,6.0,17.0,255,0.00,,,0.00,0,Wunderground v.1.15,2013-02-27 10:40:00,
2013-02-27 02:50:00,34.7,-99.9,20.00,SE,129,5.0,17.0,255,0.00,,,0.00,0,Wunderground v.1.15,2013-02-27 10:50:00,
2013-02-27 02:55:00,34.5,-99.9,20.00,ESE,110,7.0,17.0,255,0.00,,,0.00,0,Wunderground v.1.15,2013-02-27 10:55:00,
2013-02-27 03:05:00,34.5,-99.9,20.00,ESE,122,6.0,17.0,255,0.00,,,0.00,0,Wunderground v.1.15,2013-02-27 11:05:00,
2013-02-27 03:15:00,34.6,-99.9,20.00,SE,126,5.0,17.0,255,0.00,,,0.00,0,Wunderground v.1.15,2013-02-27 11:15:00,
2013-02-27 03:20:00,34.6,-99.9,20.00,ESE,114,9.0,17.0,255,0.00,,,0.00,0,Wunderground v.1.15,2013-02-27 11:20:00,
2013-02-27 03:30:00,34.6,-99.9,20.00,SE,131,5.0,17.0,255,0.00,,,0.00,0,Wunderground v.1.15,2013-02-27 11:30:00,
2013-02-27 03:35:00,34.6,-99.9,20.00,ESE,119,5.0,17.0,255,0.00,,,0.00,0,Wunderground v.1.15,2013-02-27 11:35:00,
2013-02-27 03:40:00,34.5,-99.9,20.00,ESE,107,6.0,17.0,255,0.00,,,0.00,0,Wunderground v.1.15,2013-02-27 11:40:00,
2013-02-27 03:50:00,34.3,-99.9,20.00,ESE,115,4.0,17.0,255,0.00,,,0.00,0,Wunderground v.1.15,2013-02-27 11:50:00,
2013-02-27 04:00:00,33.8,-99.9,20.00,ESE,122,6.0,17.0,255,0.00,,,0.00,0,Wunderground v.1.15,2013-02-27 12:00:00,
2013-02-27 04:10:00,33.6,-99.9,20.00,ESE,108,5.0,17.0,255,0.00,,,0.00,0,Wunderground v.1.15,2013-02-27 12:10:00,
2013-02-27 04:20:00,34.2,-99.9,20.00,ESE,107,0.0,17.0,255,0.00,,,0.00,0,Wunderground v.1.15,2013-02-27 12:20:00,
2013-02-27 04:25:00,34.5,-99.9,20.00,ESE,107,3.0,17.0,255,0.00,,,0.00,0,Wunderground v.1.15,2013-02-27 12:25:00,
2013-02-27 04:35:00,34.5,-99.9,20.00,ESE,107,3.0,17.0,255,0.00,,,0.00,0,Wunderground v.1.15,2013-02-27 12:35:00,
2013-02-27 04:45:00,34.7,-99.9,20.00,ESE,107,2.0,17.0,255,0.00,,,0.00,0,Wunderground v.1.15,2013-02-27 12:45:00,
2013-02-27 04:50:00,34.8,-99.9,20.00,ESE,107,2.0,17.0,255,0.00,,,0.00,0,Wunderground v.1.15,2013-02-27 12:50:00,
2013-02-27 05:00:00,35.1,-99.9,20.00,ESE,107,0.0,17.0,255,0.00,,,0.00,0,Wunderground v.1.15,2013-02-27 13:00:00,
2013-02-27 05:10:00,35.1,-99.9,20.00,ESE,107,2.0,17.0,255,0.00,,,0.00,0,Wunderground v.1.15,2013-02-27 13:10:00,
2013-02-27 05:20:00,34.7,-99.9,20.00,SE,140,3.0,17.0,255,0.00,,,0.00,0,Wunderground v.1.15,2013-02-27 13:20:00,
2013-02-27 05:30:00,34.8,-99.9,20.00,SE,132,2.0,17.0,255,0.00,,,0.00,0,Wunderground v.1.15,2013-02-27 13:30:00,
2013-02-27 05:40:00,35.0,-99.9,20.00,SE,132,0.0,17.0,255,0.00,,,0.00,0,Wunderground v.1.15,2013-02-27 13:40:00,
2013-02-27 05:50:00,35.1,-99.9,20.00,SE,132,0.0,17.0,255,0.00,,,0.00,0,Wunderground v.1.15,2013-02-27 13:50:00,
2013-02-27 06:00:00,35.1,-99.9,20.00,SE,132,0.0,17.0,255,0.00,,,0.00,0,Wunderground v.1.15,2013-02-27 14:00:00,
2013-02-27 06:10:00,34.8,-99.9,20.00,SE,131,2.0,17.0,255,0.00,,,0.00,0,Wunderground v.1.15,2013-02-27 14:10:00,
2013-02-27 06:15:00,34.4,-99.9,20.00,SE,131,1.0,17.0,255,0.00,,,0.00,0,Wunderground v.1.15,2013-02-27 14:15:00,
2013-02-27 06:25:00,34.5,-99.9,20.00,SE,131,1.0,17.0,255,0.00,,,0.00,0,Wunderground v.1.15,2013-02-27 14:25:00,
2013-02-27 06:35:00,35.1,-99.9,20.00,SE,131,0.0,17.0,255,0.00,,,0.00,0,Wunderground v.1.15,2013-02-27 14:35:00,
2013-02-27 06:40:00,34.2,-99.9,20.00,SE,124,8.0,17.0,255,0.00,,,0.00,0,Wunderground v.1.15,2013-02-27 14:40:00,
2013-02-27 06:50:00,34.2,-99.9,20.00,ESE,116,5.0,17.0,255,0.00,,,0.00,0,Wunderground v.1.15,2013-02-27 14:50:00,
2013-02-27 07:00:00,34.2,-99.9,20.00,ESE,112,3.0,17.0,255,0.00,,,0.00,0,Wunderground v.1.15,2013-02-27 15:00:00,
2013-02-27 07:05:00,34.1,-99.9,20.00,ESE,113,4.0,17.0,255,0.00,,,0.00,0,Wunderground v.1.15,2013-02-27 15:05:00,
2013-02-27 07:15:00,34.2,-99.9,20.00,ESE,105,7.0,17.0,255,0.00,,,0.00,0,Wunderground v.1.15,2013-02-27 15:15:00,
2013-02-27 07:25:00,34.4,-99.9,20.00,ESE,114,9.0,17.0,255,0.00,,,0.00,0,Wunderground v.1.15,2013-02-27 15:25:00,
2013-02-27 07:35:00,34.7,-99.9,20.00,ESE,116,5.0,17.0,255,0.00,,,0.00,0,Wunderground v.1.15,2013-02-27 15:35:00,
2013-02-27 07:45:00,35.0,-99.9,20.00,ESE,122,4.0,17.0,255,0.00,,,0.00,0,Wunderground v.1.15,2013-02-27 15:45:00,
2013-02-27 07:55:00,35.3,-99.9,20.00,ESE,108,4.0,17.0,255,0.00,,,0.00,0,Wunderground v.1.15,2013-02-27 15:55:00,
2013-02-27 08:05:00,36.1,-99.9,20.00,ESE,108,1.0,17.0,255,0.00,,,0.00,0,Wunderground v.1.15,2013-02-27 16:05:00,
2013-02-27 08:10:00,36.1,-99.9,20.00,ESE,115,2.0,17.0,255,0.00,,,0.00,0,Wunderground v.1.15,2013-02-27 16:10:00,
2013-02-27 08:20:00,36.2,-99.9,20.00,ESE,116,3.0,17.0,255,0.00,,,0.00,0,Wunderground v.1.15,2013-02-27 16:20:00,
2013-02-27 08:30:00,36.9,-99.9,20.00,SE,126,4.0,17.0,255,0.00,,,0.00,0,Wunderground v.1.15,2013-02-27 16:30:00,
2013-02-27 08:40:00,37.3,-99.9,20.00,SE,128,3.0,17.0,255,0.00,,,0.00,0,Wunderground v.1.15,2013-02-27 16:40:00,
2013-02-27 08:50:00,38.1,-99.9,20.00,SE,129,4.0,17.0,255,0.00,,,0.00,0,Wunderground v.1.15,2013-02-27 16:50:00,
2013-02-27 09:00:00,37.8,-99.9,20.00,ESE,102,1.0,17.0,255,0.00,,,0.00,0,Wunderground v.1.15,2013-02-27 17:00:00,
2013-02-27 09:10:00,39.2,-99.9,20.00,East,97,4.0,17.0,255,0.00,,,0.00,0,Wunderground v.1.15,2013-02-27 17:10:00,
2013-02-27 09:15:00,39.9,-99.9,20.00,ESE,105,2.0,17.0,255,0.00,,,0.00,0,Wunderground v.1.15,2013-02-27 17:15:00,
2013-02-27 09:25:00,45.3,-99.9,20.00,SE,125,3.0,17.0,255,0.00,,,0.00,0,Wunderground v.1.15,2013-02-27 17:25:00,
2013-02-27 09:35:00,46.1,-99.9,20.00,ESE,112,3.0,17.0,255,0.00,,,0.00,0,Wunderground v.1.15,2013-02-27 17:35:00,
2013-02-27 09:45:00,45.1,-99.9,20.00,ESE,113,6.0,17.0,255,0.00,,,0.00,0,Wunderground v.1.15,2013-02-27 17:45:00,
2013-02-27 09:55:00,47.4,-99.9,20.00,SE,136,8.0,17.0,255,0.00,,,0.00,0,Wunderground v.1.15,2013-02-27 17:55:00,
2013-02-27 10:05:00,49.3,-99.9,20.00,ESE,119,10.0,17.0,255,0.00,,,0.00,0,Wunderground v.1.15,2013-02-27 18:05:00,
2013-02-27 10:15:00,50.1,-99.9,20.00,ESE,122,7.0,17.0,255,0.00,,,0.00,0,Wunderground v.1.15,2013-02-27 18:15:00,
2013-02-27 10:25:00,49.9,-99.9,20.00,ESE,120,10.0,17.0,255,0.00,,,0.00,0,Wunderground v.1.15,2013-02-27 18:25:00,
2013-02-27 10:35:00,48.7,-99.9,20.00,SE,131,6.0,17.0,255,0.00,,,0.00,0,Wunderground v.1.15,2013-02-27 18:35:00,
2013-02-27 10:40:00,50.7,-99.9,20.00,ESE,122,7.0,17.0,255,0.00,,,0.00,0,Wunderground v.1.15,2013-02-27 18:40:00,
2013-02-27 10:50:00,46.8,-99.9,20.00,SE,128,7.0,17.0,255,0.00,,,0.00,0,Wunderground v.1.15,2013-02-27 18:50:00,
2013-02-27 11:00:00,44.7,-99.9,20.00,SE,130,6.0,17.0,255,0.00,,,0.00,0,Wunderground v.1.15,2013-02-27 19:00:00,
2013-02-27 11:05:00,44.0,-99.9,20.00,SE,137,7.0,17.0,255,0.00,,,0.00,0,Wunderground v.1.15,2013-02-27 19:05:00,
2013-02-27 11:15:00,44.8,-99.9,20.00,SE,133,7.0,17.0,255,0.00,,,0.00,0,Wunderground v.1.15,2013-02-27 19:15:00,
2013-02-27 11:25:00,45.5,-99.9,20.00,SE,145,2.0,17.0,255,0.00,,,0.00,0,Wunderground v.1.15,2013-02-27 19:25:00,
2013-02-27 11:30:00,46.2,-99.9,20.00,SSE,151,3.0,17.0,255,0.00,,,0.00,0,Wunderground v.1.15,2013-02-27 19:30:00,
2013-02-27 11:40:00,45.1,-99.9,20.00,ESE,116,9.0,17.0,255,0.00,,,0.00,0,Wunderground v.1.15,2013-02-27 19:40:00,
2013-02-27 11:50:00,48.6,-99.9,20.00,ESE,111,4.0,17.0,255,0.00,,,0.00,0,Wunderground v.1.15,2013-02-27 19:50:00,
2013-02-27 12:00:00,46.0,-99.9,20.00,ESE,118,9.0,17.0,255,0.00,,,0.00,0,Wunderground v.1.15,2013-02-27 20:00:00,
2013-02-27 12:05:00,47.7,-99.9,20.00,SE,141,8.0,17.0,255,0.00,,,0.00,0,Wunderground v.1.15,2013-02-27 20:05:00,
2013-02-27 12:15:00,46.2,-99.9,20.00,SE,140,4.0,17.0,255,0.00,,,0.00,0,Wunderground v.1.15,2013-02-27 20:15:00,
2013-02-27 12:25:00,45.0,-99.9,20.00,ESE,108,9.0,17.0,255,0.00,,,0.00,0,Wunderground v.1.15,2013-02-27 20:25:00,
2013-02-27 12:35:00,46.8,-99.9,20.00,ESE,119,7.0,17.0,255,0.00,,,0.00,0,Wunderground v.1.15,2013-02-27 20:35:00,
2013-02-27 12:40:00,47.2,-99.9,20.00,SE,139,9.0,17.0,255,0.00,,,0.00,0,Wunderground v.1.15,2013-02-27 20:40:00,
2013-02-27 12:50:00,46.2,-99.9,20.00,SE,142,3.0,17.0,255,0.00,,,0.00,0,Wunderground v.1.15,2013-02-27 20:50:00,
2013-02-27 13:00:00,47.2,-99.9,20.00,SSE,155,3.0,17.0,255,0.00,,,0.00,0,Wunderground v.1.15,2013-02-27 21:00:00,
2013-02-27 13:05:00,48.4,-99.9,20.00,SSW,213,6.0,17.0,255,0.00,,,0.00,0,Wunderground v.1.15,2013-02-27 21:05:00,
2013-02-27 13:15:00,48.0,-99.9,20.00,SSW,203,3.0,17.0,255,0.00,,,0.00,0,Wunderground v.1.15,2013-02-27 21:15:00,
2013-02-27 13:25:00,46.1,-99.9,20.00,ESE,117,5.0,17.0,255,0.00,,,0.00,0,Wunderground v.1.15,2013-02-27 21:25:00,
2013-02-27 13:35:00,45.7,-99.9,20.00,SE,146,4.0,17.0,255,0.00,,,0.00,0,Wunderground v.1.15,2013-02-27 21:35:00,
2013-02-27 13:45:00,46.0,-99.9,20.00,South,172,4.0,17.0,255,0.00,,,0.00,0,Wunderground v.1.15,2013-02-27 21:45:00,
2013-02-27 13:55:00,45.6,-99.9,20.00,SE,133,7.0,17.0,255,0.00,,,0.00,0,Wunderground v.1.15,2013-02-27 21:55:00,
2013-02-27 14:05:00,45.9,-99.9,20.00,SE,130,11.0,17.0,255,0.00,,,0.00,0,Wunderground v.1.15,2013-02-27 22:05:00,
2013-02-27 14:15:00,44.7,-99.9,20.00,SE,136,5.0,17.0,255,0.00,,,0.00,0,Wunderground v.1.15,2013-02-27 22:15:00,
2013-02-27 14:25:00,44.2,-99.9,20.00,SE,133,6.0,17.0,255,0.00,,,0.00,0,Wunderground v.1.15,2013-02-27 22:25:00,
2013-02-27 14:35:00,43.8,-99.9,20.00,SE,146,6.0,17.0,255,0.00,,,0.00,0,Wunderground v.1.15,2013-02-27 22:35:00,
2013-02-27 14:45:00,43.0,-99.9,20.00,SE,131,7.0,17.0,255,0.00,,,0.00,0,Wunderground v.1.15,2013-02-27 22:45:00,
2013-02-27 14:55:00,42.4,-99.9,20.00,SE,127,8.0,17.0,255,0.00,,,0.00,0,Wunderground v.1.15,2013-02-27 22:55:00,
2013-02-27 15:05:00,42.0,-99.9,20.00,SE,137,9.0,17.0,255,0.00,,,0.00,0,Wunderground v.1.15,2013-02-27 23:05:00,
2013-02-27 15:15:00,40.9,-99.9,20.00,ESE,114,7.0,17.0,255,0.00,,,0.00,0,Wunderground v.1.15,2013-02-27 23:15:00,
2013-02-27 15:25:00,41.1,-99.9,20.00,SE,135,5.0,17.0,255,0.00,,,0.00,0,Wunderground v.1.15,2013-02-27 23:25:00,
2013-02-27 15:35:00,40.9,-99.9,20.00,SE,131,3.0,17.0,255,0.00,,,0.00,0,Wunderground v.1.15,2013-02-27 23:35:00,
2013-02-27 15:45:00,40.9,-99.9,20.00,SE,127,4.0,17.0,255,0.00,,,0.00,0,Wunderground v.1.15,2013-02-27 23:45:00,
2013-02-27 15:50:00,40.8,-99.9,20.00,SE,127,4.0,17.0,255,0.00,,,0.00,0,Wunderground v.1.15,2013-02-27 23:50:00,
2013-02-27 16:00:00,40.8,-99.9,20.00,SE,127,4.0,17.0,255,0.00,,,0.00,0,Wunderground v.1.15,2013-02-28 00:00:00,
2013-02-27 16:05:00,40.6,-99.9,20.00,SE,126,5.0,17.0,255,0.00,,,0.00,0,Wunderground v.1.15,2013-02-28 00:05:00,
2013-02-27 16:15:00,40.7,-99.9,20.00,ESE,113,4.0,17.0,255,0.00,,,0.00,0,Wunderground v.1.15,2013-02-28 00:15:00,
2013-02-27 16:25:00,40.7,-99.9,20.00,ESE,112,3.0,17.0,255,0.00,,,0.00,0,Wunderground v.1.15,2013-02-28 00:25:00,
2013-02-27 16:35:00,40.6,-99.9,20.00,ESE,112,2.0,17.0,255,0.00,,,0.00,0,Wunderground v.1.15,2013-02-28 00:35:00,
2013-02-27 16:45:00,40.5,-99.9,20.00,ESE,112,1.0,17.0,255,0.00,,,0.00,0,Wunderground v.1.15,2013-02-28 00:45:00,
2013-02-27 16:55:00,40.5,-99.9,20.00,ESE,112,1.0,17.0,255,0.00,,,0.00,0,Wunderground v.1.15,2013-02-28 00:55:00,
2013-02-27 17:05:00,40.2,-99.9,20.00,ESE,112,2.0,17.0,255,0.00,,,0.00,0,Wunderground v.1.15,2013-02-28 01:05:00,
2013-02-27 17:15:00,41.1,-99.9,20.00,ESE,112,0.0,17.0,255,0.00,,,0.00,0,Wunderground v.1.15,2013-02-28 01:15:00,
2013-02-27 17:25:00,40.6,-99.9,20.00,ESE,112,0.0,17.0,255,0.00,,,0.00,0,Wunderground v.1.15,2013-02-28 01:25:00,
2013-02-27 17:35:00,40.6,-99.9,20.00,ESE,112,0.0,17.0,255,0.00,,,0.00,0,Wunderground v.1.15,2013-02-28 01:35:00,
2013-02-27 17:45:00,38.7,-99.9,20.00,ESE,112,2.0,17.0,255,0.00,,,0.00,0,Wunderground v.1.15,2013-02-28 01:45:00,
2013-02-27 17:55:00,38.3,-99.9,20.00,ESE,108,5.0,17.0,255,0.00,,,0.00,0,Wunderground v.1.15,2013-02-28 01:55:00,
2013-02-27 18:00:00,38.3,-99.9,20.00,ESE,107,3.0,17.0,255,0.00,,,0.00,0,Wunderground v.1.15,2013-02-28 02:00:00,
2013-02-27 18:10:00,38.5,-99.9,20.00,ESE,107,0.0,17.0,255,0.00,,,0.00,0,Wunderground v.1.15,2013-02-28 02:10:00,
2013-02-27 18:20:00,39.6,-99.9,20.00,ESE,107,0.0,17.0,255,0.00,,,0.00,0,Wunderground v.1.15,2013-02-28 02:20:00,
2013-02-27 18:30:00,37.5,-99.9,20.00,ESE,107,3.0,17.0,255,0.00,,,0.00,0,Wunderground v.1.15,2013-02-28 02:30:00,
2013-02-27 18:40:00,37.3,-99.9,20.00,East,101,8.0,17.0,255,0.00,,,0.00,0,Wunderground v.1.15,2013-02-28 02:40:00,
2013-02-27 18:50:00,37.1,-99.9,20.00,East,93,6.0,17.0,255,0.00,,,0.00,0,Wunderground v.1.15,2013-02-28 02:50:00,
2013-02-27 19:00:00,37.1,-99.9,20.00,East,86,2.0,17.0,255,0.00,,,0.00,0,Wunderground v.1.15,2013-02-28 03:00:00,
2013-02-27 19:10:00,37.0,-99.9,20.00,East,86,3.0,17.0,255,0.00,,,0.00,0,Wunderground v.1.15,2013-02-28 03:10:00,
2013-02-27 19:20:00,36.9,-99.9,20.00,East,86,3.0,17.0,255,0.00,,,0.00,0,Wunderground v.1.15,2013-02-28 03:20:00,
2013-02-27 19:25:00,37.0,-99.9,20.00,East,86,0.0,17.0,255,0.00,,,0.00,0,Wunderground v.1.15,2013-02-28 03:25:00,
2013-02-27 19:35:00,37.1,-99.9,20.00,East,86,0.0,17.0,255,0.00,,,0.00,0,Wunderground v.1.15,2013-02-28 03:35:00,
2013-02-27 19:45:00,36.8,-99.9,20.00,ENE,70,3.0,17.0,255,0.00,,,0.00,0,Wunderground v.1.15,2013-02-28 03:45:00,
2013-02-27 19:55:00,36.5,-99.9,20.00,ENE,77,5.0,17.0,255,0.00,,,0.00,0,Wunderground v.1.15,2013-02-28 03:55:00,
2013-02-27 20:05:00,36.1,-99.9,20.00,East,84,3.0,17.0,255,0.00,,,0.00,0,Wunderground v.1.15,2013-02-28 04:05:00,
2013-02-27 20:10:00,36.1,-99.9,20.00,East,84,5.0,17.0,255,0.00,,,0.00,0,Wunderground v.1.15,2013-02-28 04:10:00,
2013-02-27 20:20:00,36.1,-99.9,20.00,East,84,3.0,17.0,255,0.00,,,0.00,0,Wunderground v.1.15,2013-02-28 04:20:00,
2013-02-27 20:30:00,36.4,-99.9,20.00,East,84,0.0,17.0,255,0.00,,,0.00,0,Wunderground v.1.15,2013-02-28 04:30:00,
2013-02-27 20:40:00,36.5,-99.9,20.00,East,84,0.0,17.0,255,0.00,,,0.00,0,Wunderground v.1.15,2013-02-28 04:40:00,
2013-02-27 20:50:00,36.1,-99.9,20.00,East,84,4.0,17.0,255,0.00,,,0.00,0,Wunderground v.1.15,2013-02-28 04:50:00,
2013-02-27 20:55:00,35.8,-99.9,20.00,ESE,122,5.0,17.0,255,0.00,,,0.00,0,Wunderground v.1.15,2013-02-28 04:55:00,
2013-02-27 21:00:00,35.9,-99.9,20.00,ESE,106,4.0,17.0,255,0.00,,,0.00,0,Wunderground v.1.15,2013-02-28 05:00:00,
2013-02-27 21:05:00,35.9,-99.9,20.00,ESE,107,5.0,17.0,255,0.00,,,0.00,0,Wunderground v.1.15,2013-02-28 05:05:00,
2013-02-27 21:10:00,35.8,-99.9,20.00,ESE,111,5.0,17.0,255,0.00,,,0.00,0,Wunderground v.1.15,2013-02-28 05:10:00,
2013-02-27 21:15:00,35.9,-99.9,20.00,ESE,114,6.0,17.0,255,0.00,,,0.00,0,Wunderground v.1.15,2013-02-28 05:15:00,
2013-02-27 21:20:00,35.9,-99.9,20.00,ESE,112,7.0,17.0,255,0.00,,,0.00,0,Wunderground v.1.15,2013-02-28 05:20:00,
2013-02-27 21:30:00,35.8,-99.9,20.00,East,99,6.0,17.0,255,0.00,,,0.00,0,Wunderground v.1.15,2013-02-28 05:30:00,
2013-02-27 21:40:00,35.5,-99.9,20.00,East,99,3.0,17.0,255,0.00,,,0.00,0,Wunderground v.1.15,2013-02-28 05:40:00,
2013-02-27 21:50:00,35.6,-99.9,20.00,East,99,3.0,17.0,255,0.00,,,0.00,0,Wunderground v.1.15,2013-02-28 05:50:00,
2013-02-27 22:00:00,35.9,-99.9,20.00,East,99,0.0,17.0,255,0.00,,,0.00,0,Wunderground v.1.15,2013-02-28 06:00:00,
2013-02-27 22:10:00,36.3,-99.9,20.00,East,99,0.0,17.0,255,0.00,,,0.00,0,Wunderground v.1.15,2013-02-28 06:10:00,
2013-02-27 22:20:00,36.3,-99.9,20.00,North,355,0.0,17.0,255,0.00,,,0.00,0,Wunderground v.1.15,2013-02-28 06:20:00,
2013-02-27 22:25:00,35.9,-99.9,20.00,North,355,2.0,17.0,255,0.00,,,0.00,0,Wunderground v.1.15,2013-02-28 06:25:00,
2013-02-27 22:35:00,35.5,-99.9,20.00,North,355,0.0,17.0,255,0.00,,,0.00,0,Wunderground v.1.15,2013-02-28 06:35:00,
2013-02-27 22:45:00,35.6,-99.9,20.00,North,355,0.0,17.0,255,0.00,,,0.00,0,Wunderground v.1.15,2013-02-28 06:45:00,
2013-02-27 22:55:00,35.6,-99.9,20.00,North,355,3.0,17.0,255,0.00,,,0.00,0,Wunderground v.1.15,2013-02-28 06:55:00,
2013-02-27 23:05:00,35.0,-99.9,20.00,North,355,2.0,17.0,255,0.00,,,0.00,0,Wunderground v.1.15,2013-02-28 07:05:00,
2013-02-27 23:15:00,34.6,-99.9,20.00,North,357,3.0,17.0,255,0.00,,,0.00,0,Wunderground v.1.15,2013-02-28 07:15:00,
2013-02-27 23:25:00,34.6,-99.9,20.00,North,357,2.0,17.0,255,0.00,,,0.00,0,Wunderground v.1.15,2013-02-28 07:25:00,
2013-02-27 23:30:00,34.9,-99.9,20.00,North,357,0.0,17.0,255,0.00,,,0.00,0,Wunderground v.1.15,2013-02-28 07:30:00,
2013-02-27 23:40:00,35.1,-99.9,20.00,North,357,0.0,17.0,255,0.00,,,0.00,0,Wunderground v.1.15,2013-02-28 07:40:00,
2013-02-27 23:45:00,34.8,-99.9,20.00,North,357,0.0,17.0,255,0.00,,,0.00,0,Wunderground v.1.15,2013-02-28 07:45:00,
2013-02-27 23:50:00,34.7,-99.9,20.00,North,357,0.0,17.0,255,0.00,,,0.00,0,Wunderground v.1.15,2013-02-28 07:50:00,